Home > Weather > Curitiba > Past weeks

Flag for Brazil Weather for the Past 2 Weeks in Curitiba, Paraná, Brazil

Now
73 °F

Broken clouds.


Feels Like: 76 °F
Forecast: 64 / 74 °F
Wind: 9 mph from East

Location: Curitiba Aeroporto

Current Time: Feb 11, 2016 at 4:11:07 PM

Latest Report: Feb 11, 2016 at 3:00 PM


Visibility: N/A

Pressure: 30.09 "Hg (27.08 "Hg at 915m altitude)

Humidity: 69%

Dew point: 63 °F

Location of CuritibaLocation

Historic Weather in Curitiba — Graph

°F

Curitiba Temperature Yesterday

Maximum temperature yesterday: 82 °F (at 1:00 PM)
Minimum temperature yesterday: 68 °F (at 6:00 AM)
Average temperature yesterday: 72 °F

High & Low Weather Summary for the Past Weeks

 TemperatureHumidityPressure
High86 °F (Feb 5, 4:00 PM)100% (Jan 30, 4:00 AM)30.21 "Hg (Jan 30, 4:00 AM)
Low32 °F (Feb 2, 3:00 PM)35% (Feb 5, 5:00 PM)29.98 "Hg (Jan 29, 7:00 PM)
Average72 °F83%30.09 "Hg
* Reported Jan 27 3:00 PM — Feb 11 3:00 PM, Curitiba, Weather by CustomWeather, © 2016

Note: Actual official high and low records may vary slightly from our data, if they occured in-between our weather recording intervals... More about our weather records

Advertising

Curitiba Weather History for the Previous 24 Hours

 ConditionsComfort  
Time TempWeatherWind HumidityBarometerVisibility
3:00 PM
Thu, Feb 11
73 °FBroken clouds.9 mph69%30.09 "HgN/A
2:00 PM75 °FBroken clouds.8 mph69%30.09 "HgN/A
1:00 PM73 °FBroken clouds.6 mph65%30.09 "HgN/A
12:00 PM72 °FPartly sunny.9 mph73%30.12 "HgN/A
11:00 AM68 °FPartly sunny.8 mph83%30.12 "HgN/A
10:00 AM66 °FMore clouds than sun.9 mph88%30.12 "HgN/A
9:00 AM66 °FMore clouds than sun.9 mph94%30.12 "Hg5 mi
8:00 AM66 °FBroken clouds.8 mph88%30.09 "HgN/A
7:00 AM66 °FPartly sunny.12 mph88%30.07 "HgN/A
6:00 AM66 °FPartly cloudy.7 mph94%30.07 "HgN/A
5:00 AM66 °FPartly cloudy.10 mph94%30.07 "HgN/A
4:00 AM66 °FPassing clouds.9 mph94%30.07 "HgN/A
3:00 AM66 °FPassing clouds.8 mph94%30.09 "HgN/A
2:00 AM66 °FPassing clouds.10 mph94%30.09 "HgN/A
1:00 AM68 °FPassing clouds.10 mph94%30.12 "HgN/A
12:00 AM68 °FPassing clouds.10 mph94%30.12 "HgN/A
11:00 PM
Wed, Feb 10
70 °FPassing clouds.7 mph94%30.12 "HgN/A
10:00 PM70 °FLight rain. Passing clouds.7 mph94%30.12 "HgN/A
9:00 PM68 °FRain. Mostly cloudy.6 mph100%30.09 "Hg5 mi
8:00 PM68 °FHeavy rain. Fog.9 mph100%30.09 "Hg1 mi
7:00 PM70 °FLight rain. Cloudy.5 mph94%30.09 "Hg2 mi
6:00 PM70 °FMostly cloudy.5 mph94%30.07 "Hg5 mi
5:00 PM70 °FMostly cloudy.9 mph94%30.07 "Hg5 mi
4:00 PM70 °FStrong thunderstorms. Partly sunny.7 mph94%30.07 "Hg1 mi
Weather by CustomWeather, © 2016

See weather overviewHow to use our weather pages